Weather History for Jordan, MT

Change the Weather History Date:

Sunday, November 4, 2012

  Actual Average Record
Temperature  
Mean Temperature 44 °F 36 °F  
Max Temperature 58 °F 50 °F 75 °F (1917)
Min Temperature 30 °F 22 °F -6 °F (2003)
Degree Days  
Heating Degree Days 21 29  
Month to date heating degree days 95 114  
Since 1 July heating degree days 912 1087  
Cooling Degree Days 0 0  
Month to date cooling degree days 0 0  
Year to date cooling degree days 728 421  
Moisture  
Dew Point 35 °F    
Average Humidity 70    
Maximum Humidity 100    
Minimum Humidity 40    
Precipitation  
Precipitation 0.00 in 0.02 in 0.35 in (1989)
Month to date precipitation 0.19 0.08  
Year to date precipitation 7.14 12.10  
Snow  
Snow 0.00 in - - ()
Month to date snowfall 0.0  
Since 1 July snowfall 0.0  
Since 1 September snowfall 0.0  
Snow Depth 0.00 in    
Sea Level Pressure  
Sea Level Pressure 30.16 in    
Wind  
Wind Speed 8 mph (WNW)    
Max Wind Speed 26 mph    
Max Gust Speed 30 mph    
T = Trace of Precipitation, MM = Missing Value Source: NWS Daily Summary

Daily Weather History Graph

Daily Weather History Graph

Search for Another Location

Airport:

Trip Planner

Search our weather history database for the weather conditions in past years. The results will help you decide how hot, cold, wet, or windy it might be!

Date:

Astronomy

Nov. 04, 2012 Rise Set
Actual Time 6:56 AM MST 4:45 PM MST
Civil Twilight 6:24 AM MST 5:17 PM MST
Nautical Twilight 5:47 AM MST 5:54 PM MST
Astronomical Twilight 5:11 AM MST 6:29 PM MST
Moon 9:23 PM MST (11/4) 11:46 AM MST (11/4)
Length of Visible Light 10h 53m
Length of Day
9h 49m
Waning Gibbous, 71% of the Moon is Illuminated
Nov 4
Waning Gibbous
Nov 6
Last Quarter
Nov 13
New
Nov 20
First Quarter
Nov 28
Full

Hourly Weather History & Observations

Time (MST) Temp. Windchill Dew Point Humidity Pressure Visibility Wind Dir Wind Speed Gust Speed Precip Events Conditions
12:48 AM 37.9 °F - 36.0 °F 93% 30.05 in - Calm Calm - 0.01 in   Unknown
1:48 AM 37.9 °F - 36.0 °F 93% 30.04 in - Calm Calm - N/A   Unknown
1:48 AM 37.9 °F 35.5 °F 37.0 °F 97% 30.04 in - WSW 3.5 mph - N/A   Unknown
2:48 AM 39.0 °F - 37.0 °F 93% 30.04 in - Calm Calm - N/A   Unknown
3:48 AM 39.0 °F - 37.0 °F 93% 30.04 in - Calm Calm - N/A   Unknown
4:48 AM 39.9 °F - 37.9 °F 93% 30.06 in - Calm Calm - N/A   Unknown
5:48 AM 43.0 °F 38.8 °F 39.0 °F 86% 30.06 in - WSW 6.9 mph - N/A   Unknown
6:48 AM 43.0 °F 40.3 °F 37.9 °F 82% 30.07 in - West 4.6 mph - N/A   Unknown
7:48 AM 44.1 °F 39.5 °F 37.9 °F 79% 30.11 in - West 8.1 mph - N/A   Unknown
8:48 AM 51.1 °F - 41.0 °F 68% 30.11 in - WNW 17.3 mph 21.9 mph N/A   Unknown
9:48 AM 55.0 °F - 39.9 °F 57% 30.13 in - WNW 19.6 mph 25.3 mph N/A   Unknown
10:48 AM 57.0 °F - 37.0 °F 47% 30.15 in - NW 23.0 mph 29.9 mph N/A   Unknown
11:48 AM 57.9 °F - 35.1 °F 42% 30.17 in - NW 18.4 mph 26.5 mph N/A   Unknown
12:48 PM 57.0 °F - 33.1 °F 40% 30.18 in - NW 20.7 mph 26.5 mph N/A   Unknown
1:48 PM 57.0 °F - 33.1 °F 40% 30.19 in - NW 20.7 mph - N/A   Unknown
2:48 PM 55.9 °F - 34.0 °F 44% 30.21 in - NW 17.3 mph - N/A   Unknown
3:48 PM 55.0 °F - 35.1 °F 47% 30.24 in - NW 12.7 mph - N/A   Unknown
4:48 PM 44.1 °F 41.5 °F 35.1 °F 71% 30.26 in - NW 4.6 mph - N/A   Unknown
5:48 PM 43.0 °F 37.2 °F 35.1 °F 74% 30.27 in - NNW 10.4 mph - N/A   Unknown
6:48 PM 35.1 °F - 30.9 °F 85% 30.30 in - Calm Calm - N/A   Unknown
7:48 PM 34.0 °F - 30.9 °F 89% 30.30 in - Calm Calm - N/A   Unknown
8:48 PM 30.0 °F 26.5 °F 28.0 °F 92% 30.27 in - WSW 3.5 mph - N/A   Unknown
9:48 PM 36.0 °F 33.3 °F 34.0 °F 93% 30.25 in - NW 3.5 mph - N/A   Unknown
10:48 PM 36.0 °F - 33.1 °F 89% 30.22 in - Calm Calm - N/A   Unknown